ONEWEB-0057, 45160

Orbit data source: Space-Track

ONEWEB-0057, 45160 is a payload satellite owned by One Web (UK) in LEO that was launched on Thu, 06 Feb 2020 UTC via a SOYUZ-2-1B launch vehicle from the Tyuratam Missile And Space Complex (TTMTR). Payload-class satellites include a variety of spacecraft equipped with specific instruments for various scientific and technological missions. These include communications satellites like Starlink; space stations such as the ISS; scientific satellites like the Hubble; Earth observation satellites from companies like Planet Labs, Umbra, and HawkEye 360; GPS; miniature CubeSats for education and research; and military/defense satellites.

Loading next visibility...
Identifier
45160, 2020-008AF
Orbit
LEO
Last TLE update
11 hours ago
Origin
Manufacturer
One Web
Mission
Operational Commercial Communications
Bus & Motor
ARROW, Unknown motor
Mass
148 kg wet, ~140 kg dry
Launch date (UTC)
2020-02-06 (5 years ago)
Launch vehicle
SOYUZ-2-1B
Launch site
Tyuratam Missile And Space Complex (TTMTR)
Object type
Payload
Rocket body
Debris
Shape & HBR
Trap Box + 2 Pan, 5 m
Radar Cross Section
2.957 m², Large (>1 m²)

Expand to show TLE details & history

TLE from 11 hours ago
0 ONEWEB-0057
1 45160U 20008AF  25128.91085490 -.00000549  00000-0 -16101-2 0  9991
2 45160  87.8794 116.8794 0002117  82.8347 277.3021 13.10373510255895
Epoch: 2025-05-08T21:51Z
Definitive object data (Epoch: 2025-05-08T21:51:37.863Z)
Latitude
-0.00001°
Longitude
-78.00293°
Altitude
1,224.398 km
Speed
7.242 km/s
True Right ascension
07h 47m 31s
True Declination
0° 00' 00"
Sunlit
Object was in daylight at TLE epoch
Visualization TLE readout
Latitude
82.66522°
Longitude
-61.46627°
Altitude
1,233.764 km
Speed
7.245 km/s
Apparent Right ascension
05h 57m 43s
Apparent Declination
31° 54' 23"
Sunlit
Object is in daylight
Visualization observer readout
Local Sidereal Time
17:25:57
Azimuth
352.924° N
Elevation
-17.801°
Doppler factor
1
Orbital elements
Apogee altitude
1,220.443 km
Perigee altitude
1,217.226 km
Semi-major axis
7,596.971 km
Eccentricity
0.0002117
Inclination
87.8794°
RAAN
116.8794°
Arg. of periapsis
82.8347°
True anomaly
277.27804°
Mean anomaly
277.3021°
Eccentric anomaly
277.29007°
Mean motion
3.2778 °/min
BSTAR
-0.0016101
Orbital period
109.83 mins
Loading maneuver chart data...
Loading SW <> Apogee altitude chart data...
Loading historical data...
Loading historical data...
Loading historical data...
Loading historical data...
Loading historical data...
Loading historical data...
Loading historical data...

ONEWEB-0057 Visibility forecast

Observer location: undefined°, undefined°

Span
Click to sort rows by Start time (UTC) header in descending order
Start Az.
Max El. time (UTC)
Max El. Az.
Max El.
End time (UTC)
End Az.
5 mins2025-05-09 09:30:39.134Z51.189° ENE2025-05-09 09:32:39.134Z68.064° E12.89°2025-05-09 09:35:39.134Z93.29° ESE
12 mins2025-05-09 11:18:39.134Z2.416° NNE2025-05-09 11:23:39.134Z42.942° NE44.486°2025-05-09 11:30:39.134Z177.455° S
6 mins2025-05-09 13:10:39.134Z309.821° NW2025-05-09 13:12:39.134Z291.439° WNW16.226°2025-05-09 13:16:39.134Z255.902° W
6 mins2025-05-09 21:51:39.134Z94.493° ESE2025-05-09 21:54:39.134Z67.794° E14.828°2025-05-09 21:57:39.134Z42.412° NE
12 mins2025-05-09 23:37:39.134Z179.442° S2025-05-09 23:43:39.134Z352.191° N44.564°2025-05-09 23:49:39.134Z0.231° NNE
6 mins2025-05-10 01:31:39.134Z266.519° W2025-05-10 01:34:39.134Z292.952° NW14.156°2025-05-10 01:37:39.134Z317.995° NNW
|